Time,TemperatureF,DewpointF,PressureIn,WindDirection,WindDirectionDegrees,WindSpeedMPH,WindSpeedGustMPH,Humidity,HourlyPrecipIn,Conditions,Clouds,dailyrainin,SoftwareType,DateUTC
2013-02-21 00:00:00,6.4,1.6,30.31,SSE,157,0.0,0.0,80,0.00,,,0.00,WUHU21623XXSP,2013-02-21 06:00:00,
2013-02-21 00:05:00,5.9,1.0,30.31,NNE,22,0.0,0.0,80,0.00,,,0.00,WUHU21623XXSP,2013-02-21 06:05:00,
2013-02-21 00:10:00,5.7,1.1,30.31,NNE,22,0.0,0.0,81,0.00,,,0.00,WUHU21623XXSP,2013-02-21 06:10:00,
2013-02-21 00:15:00,5.5,0.9,30.31,NNE,22,0.0,0.0,81,0.00,,,0.00,WUHU21623XXSP,2013-02-21 06:15:00,
2013-02-21 00:20:00,5.5,0.9,30.31,West,270,0.0,0.0,81,0.00,,,0.00,WUHU21623XXSP,2013-02-21 06:20:00,
2013-02-21 00:25:00,6.1,1.1,30.32,West,270,0.0,0.0,82,0.00,,,0.00,WUHU21623XXSP,2013-02-21 06:25:00,
2013-02-21 00:30:00,6.8,2.1,30.32,NNW,337,0.0,0.0,82,0.00,,,0.00,WUHU21623XXSP,2013-02-21 06:30:00,
2013-02-21 00:35:00,7.0,2.4,30.32,North,0,0.0,0.0,81,0.00,,,0.00,WUHU21623XXSP,2013-02-21 06:35:00,
2013-02-21 00:40:00,6.6,1.8,30.31,NW,315,0.0,0.0,80,0.00,,,0.00,WUHU21623XXSP,2013-02-21 06:40:00,
2013-02-21 00:45:00,5.9,1.3,30.32,WSW,247,0.0,0.0,81,0.00,,,0.00,WUHU21623XXSP,2013-02-21 06:45:00,
2013-02-21 00:50:00,5.9,1.5,30.32,WSW,247,0.0,0.0,82,0.00,,,0.00,WUHU21623XXSP,2013-02-21 06:50:00,
2013-02-21 00:55:00,7.0,2.6,30.32,WNW,292,0.0,0.0,82,0.00,,,0.00,WUHU21623XXSP,2013-02-21 06:55:00,
2013-02-21 01:00:00,7.7,3.2,30.32,WNW,292,0.0,0.0,82,0.00,,,0.00,WUHU21623XXSP,2013-02-21 07:00:00,
2013-02-21 01:05:00,7.3,2.7,30.32,NNE,22,0.0,0.0,81,0.00,,,0.00,WUHU21623XXSP,2013-02-21 07:05:00,
2013-02-21 01:10:00,6.6,2.0,30.31,ENE,67,0.0,0.0,81,0.00,,,0.00,WUHU21623XXSP,2013-02-21 07:10:00,
2013-02-21 01:15:00,6.1,1.5,30.31,ENE,67,0.0,0.0,81,0.00,,,0.00,WUHU21623XXSP,2013-02-21 07:15:00,
2013-02-21 01:20:00,6.4,2.1,30.32,NNE,22,0.0,0.0,82,0.00,,,0.00,WUHU21623XXSP,2013-02-21 07:20:00,
2013-02-21 01:25:00,7.2,2.8,30.32,NNE,22,0.0,0.0,82,0.00,,,0.00,WUHU21623XXSP,2013-02-21 07:25:00,
2013-02-21 01:30:00,10.2,5.4,30.32,NNE,22,0.0,2.0,81,0.00,,,0.00,WUHU21623XXSP,2013-02-21 07:30:00,
2013-02-21 01:35:00,10.9,5.6,30.32,NNE,22,0.0,2.0,79,0.00,,,0.00,WUHU21623XXSP,2013-02-21 07:35:00,
2013-02-21 01:40:00,11.1,5.6,30.32,NNE,22,0.0,0.0,79,0.00,,,0.00,WUHU21623XXSP,2013-02-21 07:40:00,
2013-02-21 01:45:00,11.5,5.9,30.32,NE,45,3.4,3.4,78,0.00,,,0.00,WUHU21623XXSP,2013-02-21 07:45:00,
2013-02-21 01:50:00,12.0,6.4,30.32,NE,45,0.0,4.0,78,0.00,,,0.00,WUHU21623XXSP,2013-02-21 07:50:00,
2013-02-21 01:55:00,12.4,6.8,30.32,NE,45,3.4,4.0,78,0.00,,,0.00,WUHU21623XXSP,2013-02-21 07:55:00,
2013-02-21 02:00:00,12.9,7.0,30.32,NE,45,2.7,4.3,77,0.00,,,0.00,WUHU21623XXSP,2013-02-21 08:00:00,
2013-02-21 02:05:00,13.1,6.9,30.32,NE,45,6.3,6.3,76,0.00,,,0.00,WUHU21623XXSP,2013-02-21 08:05:00,
2013-02-21 02:10:00,13.3,6.8,30.31,NNE,22,4.0,6.3,75,0.00,,,0.00,WUHU21623XXSP,2013-02-21 08:10:00,
2013-02-21 02:15:00,13.3,7.1,30.32,NE,45,1.3,6.5,76,0.00,,,0.00,WUHU21623XXSP,2013-02-21 08:15:00,
2013-02-21 02:20:00,13.3,6.8,30.32,NE,45,2.0,6.5,75,0.00,,,0.00,WUHU21623XXSP,2013-02-21 08:20:00,
2013-02-21 02:25:00,13.3,6.8,30.32,NE,45,2.2,4.7,75,0.00,,,0.00,WUHU21623XXSP,2013-02-21 08:25:00,
2013-02-21 02:30:00,13.3,6.8,30.31,NE,45,3.6,4.0,75,0.00,,,0.00,WUHU21623XXSP,2013-02-21 08:30:00,
2013-02-21 02:35:00,13.1,6.6,30.32,ESE,112,0.0,4.0,75,0.00,,,0.00,WUHU21623XXSP,2013-02-21 08:35:00,
2013-02-21 02:40:00,13.1,6.6,30.32,ENE,67,3.4,3.4,75,0.00,,,0.00,WUHU21623XXSP,2013-02-21 08:40:00,
2013-02-21 02:45:00,13.1,6.6,30.32,NE,45,3.1,3.4,75,0.00,,,0.00,WUHU21623XXSP,2013-02-21 08:45:00,
2013-02-21 02:50:00,12.9,6.4,30.31,NE,45,1.8,4.3,75,0.00,,,0.00,WUHU21623XXSP,2013-02-21 08:50:00,
2013-02-21 02:55:00,12.9,6.4,30.32,ENE,67,3.6,4.3,75,0.00,,,0.00,WUHU21623XXSP,2013-02-21 08:55:00,
2013-02-21 03:00:00,12.7,6.3,30.32,ENE,67,2.2,3.6,75,0.00,,,0.00,WUHU21623XXSP,2013-02-21 09:00:00,
2013-02-21 03:05:00,12.7,6.3,30.32,NNE,22,0.0,3.6,75,0.00,,,0.00,WUHU21623XXSP,2013-02-21 09:05:00,
2013-02-21 03:10:00,12.4,5.9,30.32,NE,45,0.0,2.2,75,0.00,,,0.00,WUHU21623XXSP,2013-02-21 09:10:00,
2013-02-21 03:15:00,12.7,6.5,30.32,NE,45,2.2,2.2,76,0.00,,,0.00,WUHU21623XXSP,2013-02-21 09:15:00,
2013-02-21 03:20:00,12.6,6.4,30.33,North,0,0.0,2.2,76,0.00,,,0.00,WUHU21623XXSP,2013-02-21 09:20:00,
2013-02-21 03:25:00,12.6,6.4,30.34,NNE,22,2.2,3.6,76,0.00,,,0.00,WUHU21623XXSP,2013-02-21 09:25:00,
2013-02-21 03:30:00,12.6,6.4,30.34,NE,45,2.2,3.6,76,0.00,,,0.00,WUHU21623XXSP,2013-02-21 09:30:00,
2013-02-21 03:35:00,12.4,6.2,30.34,NE,45,3.8,3.8,76,0.00,,,0.00,WUHU21623XXSP,2013-02-21 09:35:00,
2013-02-21 03:40:00,12.2,6.3,30.34,NE,45,2.5,4.0,77,0.00,,,0.00,WUHU21623XXSP,2013-02-21 09:40:00,
2013-02-21 03:45:00,12.4,6.5,30.34,NE,45,4.3,4.3,77,0.00,,,0.00,WUHU21623XXSP,2013-02-21 09:45:00,
2013-02-21 03:50:00,12.2,6.3,30.34,NNE,22,4.5,4.5,77,0.00,,,0.00,WUHU21623XXSP,2013-02-21 09:50:00,
2013-02-21 03:55:00,12.2,6.3,30.34,NNE,22,2.2,5.6,77,0.00,,,0.00,WUHU21623XXSP,2013-02-21 09:55:00,
2013-02-21 04:00:00,12.0,6.1,30.34,NNE,22,4.5,5.6,77,0.00,,,0.00,WUHU21623XXSP,2013-02-21 10:00:00,
2013-02-21 04:05:00,12.0,6.1,30.34,NNE,22,3.4,4.5,77,0.00,,,0.00,WUHU21623XXSP,2013-02-21 10:05:00,
2013-02-21 04:10:00,12.0,6.1,30.34,NNE,22,0.0,4.5,77,0.00,,,0.00,WUHU21623XXSP,2013-02-21 10:10:00,
2013-02-21 04:15:00,12.0,6.1,30.34,NNE,22,0.0,3.4,77,0.00,,,0.00,WUHU21623XXSP,2013-02-21 10:15:00,
2013-02-21 04:20:00,12.0,6.4,30.35,NNE,22,1.6,1.6,78,0.00,,,0.00,WUHU21623XXSP,2013-02-21 10:20:00,
2013-02-21 04:25:00,12.0,6.4,30.34,NNE,22,0.0,2.9,78,0.00,,,0.00,WUHU21623XXSP,2013-02-21 10:25:00,
2013-02-21 04:30:00,12.0,6.1,30.35,NNE,22,5.8,5.8,77,0.00,,,0.00,WUHU21623XXSP,2013-02-21 10:30:00,
2013-02-21 04:35:00,12.0,6.1,30.35,NE,45,0.0,5.8,77,0.00,,,0.00,WUHU21623XXSP,2013-02-21 10:35:00,
2013-02-21 04:40:00,11.8,5.9,30.34,NE,45,0.0,4.7,77,0.00,,,0.00,WUHU21623XXSP,2013-02-21 10:40:00,
2013-02-21 04:45:00,11.7,5.8,30.34,NNE,22,0.0,4.7,77,0.00,,,0.00,WUHU21623XXSP,2013-02-21 10:45:00,
2013-02-21 04:50:00,11.5,5.9,30.34,NNE,22,1.6,1.6,78,0.00,,,0.00,WUHU21623XXSP,2013-02-21 10:50:00,
2013-02-21 04:55:00,11.3,5.7,30.33,NE,45,3.8,3.8,78,0.00,,,0.00,WUHU21623XXSP,2013-02-21 10:55:00,
2013-02-21 05:00:00,11.3,5.7,30.34,NE,45,2.5,3.8,78,0.00,,,0.00,WUHU21623XXSP,2013-02-21 11:00:00,
2013-02-21 05:05:00,11.1,5.5,30.33,NE,45,2.9,3.8,78,0.00,,,0.00,WUHU21623XXSP,2013-02-21 11:05:00,
2013-02-21 05:11:00,11.1,5.5,30.33,NNE,22,2.0,4.7,78,0.00,,,0.00,WUHU21623XXSP,2013-02-21 11:11:00,
2013-02-21 05:16:00,10.9,5.3,30.32,NE,45,2.5,4.7,78,0.00,,,0.00,WUHU21623XXSP,2013-02-21 11:16:00,
2013-02-21 05:21:00,10.9,5.3,30.32,NE,45,1.8,2.5,78,0.00,,,0.00,WUHU21623XXSP,2013-02-21 11:21:00,
2013-02-21 05:26:00,10.8,5.4,30.32,NNE,22,5.1,5.1,79,0.00,,,0.00,WUHU21623XXSP,2013-02-21 11:26:00,
2013-02-21 05:31:00,10.6,5.4,30.31,NE,45,6.3,6.3,79,0.00,,,0.00,WUHU21623XXSP,2013-02-21 11:31:00,
2013-02-21 05:36:00,10.6,5.3,30.30,NE,45,8.5,8.5,79,0.00,,,0.00,WUHU21623XXSP,2013-02-21 11:36:00,
2013-02-21 05:41:00,10.6,5.5,30.29,NNE,22,9.6,9.6,80,0.00,,,0.00,WUHU21623XXSP,2013-02-21 11:41:00,
2013-02-21 05:46:00,10.6,5.5,30.28,NE,45,13.2,13.2,80,0.00,,,0.00,WUHU21623XXSP,2013-02-21 11:46:00,
2013-02-21 05:51:00,10.6,5.5,30.28,NNE,22,9.2,13.2,80,0.00,,,0.00,WUHU21623XXSP,2013-02-21 11:51:00,
2013-02-21 05:56:00,10.2,4.9,30.26,NE,45,5.1,10.7,79,0.00,,,0.00,WUHU21623XXSP,2013-02-21 11:56:00,
2013-02-21 06:01:00,10.2,5.2,30.26,NE,45,6.0,9.8,80,0.00,,,0.00,WUHU21623XXSP,2013-02-21 12:01:00,
2013-02-21 06:06:00,10.2,4.9,30.27,NE,45,3.8,6.7,79,0.00,,,0.00,WUHU21623XXSP,2013-02-21 12:06:00,
2013-02-21 06:11:00,10.2,4.9,30.30,ENE,67,2.5,6.7,79,0.00,,,0.00,WUHU21623XXSP,2013-02-21 12:11:00,
2013-02-21 06:16:00,10.2,4.9,30.32,ESE,112,2.2,4.9,79,0.00,,,0.00,WUHU21623XXSP,2013-02-21 12:16:00,
2013-02-21 06:21:00,10.2,4.9,30.33,South,180,0.0,2.2,79,0.00,,,0.00,WUHU21623XXSP,2013-02-21 12:21:00,
2013-02-21 06:26:00,10.6,5.3,30.34,SSE,157,0.0,0.0,79,0.00,,,0.00,WUHU21623XXSP,2013-02-21 12:26:00,
2013-02-21 06:31:00,10.6,5.3,30.33,ENE,67,1.8,1.8,79,0.00,,,0.00,WUHU21623XXSP,2013-02-21 12:31:00,
2013-02-21 06:36:00,10.2,4.9,30.32,NE,45,4.3,4.3,79,0.00,,,0.00,WUHU21623XXSP,2013-02-21 12:36:00,
2013-02-21 06:41:00,9.7,4.4,30.32,NE,45,0.0,4.3,79,0.00,,,0.00,WUHU21623XXSP,2013-02-21 12:41:00,
2013-02-21 06:46:00,9.7,4.4,30.33,ENE,67,0.9,2.2,79,0.00,,,0.00,WUHU21623XXSP,2013-02-21 12:46:00,
2013-02-21 06:51:00,10.0,4.4,30.32,ENE,67,0.9,0.9,79,0.00,,,0.00,WUHU21623XXSP,2013-02-21 12:51:00,
2013-02-21 06:56:00,10.0,4.7,30.33,NE,45,0.0,0.9,79,0.00,,,0.00,WUHU21623XXSP,2013-02-21 12:56:00,
2013-02-21 07:01:00,10.2,4.9,30.34,ENE,67,0.0,0.0,79,0.00,,,0.00,WUHU21623XXSP,2013-02-21 13:01:00,
2013-02-21 07:06:00,10.2,4.9,30.34,North,0,0.0,0.0,79,0.00,,,0.00,WUHU21623XXSP,2013-02-21 13:06:00,
2013-02-21 07:11:00,10.6,5.3,30.34,North,0,0.0,0.0,79,0.00,,,0.00,WUHU21623XXSP,2013-02-21 13:11:00,
2013-02-21 07:16:00,10.8,5.4,30.34,NNW,337,0.0,0.0,79,0.00,,,0.00,WUHU21623XXSP,2013-02-21 13:16:00,
2013-02-21 07:21:00,11.1,5.8,30.34,NNE,22,0.0,0.0,79,0.00,,,0.00,WUHU21623XXSP,2013-02-21 13:21:00,
2013-02-21 07:26:00,11.1,5.5,30.33,NNE,22,3.1,3.1,78,0.00,,,0.00,WUHU21623XXSP,2013-02-21 13:26:00,
2013-02-21 07:31:00,10.9,5.3,30.32,NNE,22,3.1,3.1,78,0.00,,,0.00,WUHU21623XXSP,2013-02-21 13:31:00,
2013-02-21 07:36:00,11.1,5.5,30.32,NNE,22,0.0,3.1,78,0.00,,,0.00,WUHU21623XXSP,2013-02-21 13:36:00,
2013-02-21 07:41:00,11.7,6.0,30.33,NNE,22,0.0,2.2,78,0.00,,,0.00,WUHU21623XXSP,2013-02-21 13:41:00,
2013-02-21 07:46:00,11.8,6.2,30.33,NNE,22,2.0,2.2,78,0.00,,,0.00,WUHU21623XXSP,2013-02-21 13:46:00,
2013-02-21 07:51:00,12.0,6.1,30.33,NE,45,1.3,2.0,77,0.00,,,0.00,WUHU21623XXSP,2013-02-21 13:51:00,
2013-02-21 07:56:00,12.6,6.7,30.34,NE,45,2.0,2.0,77,0.00,,,0.00,WUHU21623XXSP,2013-02-21 13:56:00,
2013-02-21 08:01:00,13.3,7.4,30.34,ENE,67,0.0,2.0,77,0.00,,,0.00,WUHU21623XXSP,2013-02-21 14:01:00,
2013-02-21 08:06:00,14.2,8.3,30.34,East,90,0.0,0.0,77,0.00,,,0.00,WUHU21623XXSP,2013-02-21 14:06:00,
2013-02-21 08:11:00,14.2,8.0,30.35,NE,45,0.0,1.8,76,0.00,,,0.00,WUHU21623XXSP,2013-02-21 14:11:00,
2013-02-21 08:16:00,14.2,8.0,30.34,NE,45,1.6,1.8,76,0.00,,,0.00,WUHU21623XXSP,2013-02-21 14:16:00,
2013-02-21 08:21:00,13.6,7.4,30.34,NE,45,4.0,5.4,76,0.00,,,0.00,WUHU21623XXSP,2013-02-21 14:21:00,
2013-02-21 08:26:00,13.5,7.6,30.33,ENE,67,4.3,6.3,77,0.00,,,0.00,WUHU21623XXSP,2013-02-21 14:26:00,
2013-02-21 08:31:00,13.3,7.4,30.33,NNE,22,9.2,12.1,77,0.00,,,0.00,WUHU21623XXSP,2013-02-21 14:31:00,
2013-02-21 08:36:00,13.5,7.8,30.32,ENE,67,3.4,12.1,78,0.00,,,0.00,WUHU21623XXSP,2013-02-21 14:36:00,
2013-02-21 08:41:00,13.6,8.0,30.32,NE,45,3.6,6.5,78,0.00,,,0.00,WUHU21623XXSP,2013-02-21 14:41:00,
2013-02-21 08:46:00,13.6,8.0,30.33,NE,45,8.5,8.5,78,0.00,,,0.00,WUHU21623XXSP,2013-02-21 14:46:00,
2013-02-21 08:51:00,13.6,8.0,30.34,NNE,22,7.4,8.5,78,0.00,,,0.00,WUHU21623XXSP,2013-02-21 14:51:00,
2013-02-21 08:56:00,13.8,8.2,30.32,NE,45,7.4,7.4,78,0.00,,,0.00,WUHU21623XXSP,2013-02-21 14:56:00,
2013-02-21 09:01:00,14.2,8.5,30.32,ENE,67,5.4,7.4,78,0.00,,,0.00,WUHU21623XXSP,2013-02-21 15:01:00,
2013-02-21 09:06:00,14.2,8.3,30.32,NE,45,7.8,7.8,77,0.00,,,0.00,WUHU21623XXSP,2013-02-21 15:06:00,
2013-02-21 09:11:00,14.4,8.7,30.32,NNE,22,6.5,11.4,78,0.00,,,0.00,WUHU21623XXSP,2013-02-21 15:11:00,
2013-02-21 09:16:00,14.4,8.7,30.32,NNE,22,6.0,11.4,78,0.00,,,0.00,WUHU21623XXSP,2013-02-21 15:16:00,
2013-02-21 09:21:00,14.4,8.7,30.32,NE,45,5.8,11.2,78,0.00,,,0.00,WUHU21623XXSP,2013-02-21 15:21:00,
2013-02-21 09:26:00,14.4,8.7,30.33,NE,45,5.8,11.2,78,0.00,,,0.00,WUHU21623XXSP,2013-02-21 15:26:00,
2013-02-21 09:31:00,14.2,8.5,30.32,NE,45,5.8,5.8,78,0.00,,,0.00,WUHU21623XXSP,2013-02-21 15:31:00,
2013-02-21 09:36:00,14.4,9.0,30.32,NE,45,6.0,8.5,79,0.00,,,0.00,WUHU21623XXSP,2013-02-21 15:36:00,
2013-02-21 09:41:00,14.7,9.4,30.32,NNE,22,5.1,8.5,79,0.00,,,0.00,WUHU21623XXSP,2013-02-21 15:41:00,
2013-02-21 09:46:00,14.7,9.4,30.32,NNE,22,7.8,7.8,79,0.00,,,0.00,WUHU21623XXSP,2013-02-21 15:46:00,
2013-02-21 09:51:00,15.1,9.7,30.32,ENE,67,5.4,8.1,79,0.00,,,0.00,WUHU21623XXSP,2013-02-21 15:51:00,
2013-02-21 09:55:00,15.3,9.6,30.32,NE,45,9.2,9.2,78,0.00,,,0.00,WUHU21623XXSP,2013-02-21 15:55:00,
2013-02-21 10:00:00,15.4,9.6,30.32,NNE,22,8.1,9.2,78,0.00,,,0.00,WUHU21623XXSP,2013-02-21 16:00:00,
2013-02-21 10:05:00,15.6,10.0,30.32,ENE,67,8.9,8.9,78,0.00,,,0.00,WUHU21623XXSP,2013-02-21 16:05:00,
2013-02-21 10:10:00,15.8,10.1,30.32,ESE,112,9.6,9.6,78,0.00,,,0.00,WUHU21623XXSP,2013-02-21 16:10:00,
2013-02-21 10:15:00,15.6,9.7,30.32,NE,45,4.7,9.6,77,0.00,,,0.00,WUHU21623XXSP,2013-02-21 16:15:00,
2013-02-21 10:20:00,15.6,10.0,30.32,ENE,67,12.1,12.1,78,0.00,,,0.00,WUHU21623XXSP,2013-02-21 16:20:00,
2013-02-21 10:25:00,15.6,10.0,30.31,ENE,67,12.3,12.3,78,0.00,,,0.00,WUHU21623XXSP,2013-02-21 16:25:00,
2013-02-21 10:30:00,16.3,10.6,30.32,ENE,67,12.1,12.3,78,0.00,,,0.00,WUHU21623XXSP,2013-02-21 16:30:00,
2013-02-21 10:35:00,16.3,10.3,30.33,NE,45,7.6,12.3,77,0.00,,,0.00,WUHU21623XXSP,2013-02-21 16:35:00,
2013-02-21 10:40:00,16.7,10.7,30.32,ENE,67,6.0,8.7,77,0.00,,,0.00,WUHU21623XXSP,2013-02-21 16:40:00,
2013-02-21 10:45:00,16.7,10.7,30.32,NE,45,11.9,11.9,77,0.00,,,0.00,WUHU21623XXSP,2013-02-21 16:45:00,
2013-02-21 10:50:00,16.9,10.8,30.32,East,90,8.9,11.9,77,0.00,,,0.00,WUHU21623XXSP,2013-02-21 16:50:00,
2013-02-21 10:55:00,17.2,11.2,30.32,NE,45,5.6,11.9,77,0.00,,,0.00,WUHU21623XXSP,2013-02-21 16:55:00,
2013-02-21 11:00:00,17.4,11.3,30.31,ENE,67,8.5,11.4,77,0.00,,,0.00,WUHU21623XXSP,2013-02-21 17:00:00,
2013-02-21 11:05:00,17.2,11.2,30.31,NNE,22,7.6,9.2,77,0.00,,,0.00,WUHU21623XXSP,2013-02-21 17:05:00,
2013-02-21 11:10:00,17.8,11.4,30.31,NE,45,9.2,9.2,76,0.00,,,0.00,WUHU21623XXSP,2013-02-21 17:10:00,
2013-02-21 11:15:00,18.1,11.4,30.31,East,90,4.0,9.2,75,0.00,,,0.00,WUHU21623XXSP,2013-02-21 17:15:00,
2013-02-21 11:20:00,18.3,11.6,30.30,ENE,67,13.2,13.2,75,0.00,,,0.00,WUHU21623XXSP,2013-02-21 17:20:00,
2013-02-21 11:25:00,18.0,11.3,30.30,ENE,67,7.2,14.3,75,0.00,,,0.00,WUHU21623XXSP,2013-02-21 17:25:00,
2013-02-21 11:30:00,18.0,11.6,30.29,NE,45,10.1,14.3,76,0.00,,,0.00,WUHU21623XXSP,2013-02-21 17:30:00,
2013-02-21 11:35:00,18.0,11.9,30.29,NE,45,9.8,11.9,77,0.00,,,0.00,WUHU21623XXSP,2013-02-21 17:35:00,
2013-02-21 11:40:00,18.3,12.2,30.29,NE,45,13.0,13.0,77,0.00,,,0.00,WUHU21623XXSP,2013-02-21 17:40:00,
2013-02-21 11:45:00,18.3,12.5,30.29,ENE,67,8.5,13.0,78,0.00,,,0.00,WUHU21623XXSP,2013-02-21 17:45:00,
2013-02-21 11:50:00,18.5,12.4,30.28,ENE,67,10.3,10.3,77,0.00,,,0.00,WUHU21623XXSP,2013-02-21 17:50:00,
2013-02-21 11:55:00,18.9,12.7,30.29,NE,45,5.1,10.3,77,0.00,,,0.00,WUHU21623XXSP,2013-02-21 17:55:00,
2013-02-21 12:00:00,19.2,13.1,30.29,ENE,67,5.6,9.6,77,0.00,,,0.00,WUHU21623XXSP,2013-02-21 18:00:00,
2013-02-21 12:05:00,19.6,13.4,30.28,East,90,8.3,8.5,76,0.00,,,0.00,WUHU21623XXSP,2013-02-21 18:05:00,
2013-02-21 12:10:00,20.3,13.7,30.28,ESE,112,4.9,8.3,75,0.00,,,0.00,WUHU21623XXSP,2013-02-21 18:10:00,
2013-02-21 12:15:00,20.1,13.1,30.28,East,90,7.6,8.1,74,0.00,,,0.00,WUHU21623XXSP,2013-02-21 18:15:00,
2013-02-21 12:20:00,19.9,13.2,30.27,East,90,6.7,7.6,75,0.00,,,0.00,WUHU21623XXSP,2013-02-21 18:20:00,
2013-02-21 12:25:00,19.9,13.5,30.27,NE,45,5.6,6.7,76,0.00,,,0.00,WUHU21623XXSP,2013-02-21 18:25:00,
2013-02-21 12:30:00,19.9,13.5,30.26,ENE,67,5.4,6.0,77,0.00,,,0.00,WUHU21623XXSP,2013-02-21 18:30:00,
2013-02-21 12:35:00,19.9,14.4,30.26,East,90,7.6,7.6,79,0.00,,,0.00,WUHU21623XXSP,2013-02-21 18:35:00,
2013-02-21 12:40:00,19.9,15.0,30.25,ENE,67,11.9,11.9,81,0.00,,,0.00,WUHU21623XXSP,2013-02-21 18:40:00,
2013-02-21 12:46:00,20.1,15.2,30.24,ENE,67,6.3,11.9,81,0.00,,,0.00,WUHU21623XXSP,2013-02-21 18:46:00,
2013-02-21 12:50:00,20.1,14.9,30.25,NNE,22,7.4,11.2,80,0.00,,,0.00,WUHU21623XXSP,2013-02-21 18:50:00,
2013-02-21 12:55:00,19.9,14.7,30.24,NE,45,7.2,11.2,80,0.00,,,0.00,WUHU21623XXSP,2013-02-21 18:55:00,
2013-02-21 13:01:00,19.9,14.7,30.24,NNE,22,7.6,10.5,80,0.00,,,0.00,WUHU21623XXSP,2013-02-21 19:01:00,
2013-02-21 13:05:00,19.9,14.7,30.24,NNE,22,6.5,7.6,81,0.00,,,0.00,WUHU21623XXSP,2013-02-21 19:05:00,
2013-02-21 13:11:00,19.9,15.3,30.24,NE,45,6.3,8.9,82,0.00,,,0.00,WUHU21623XXSP,2013-02-21 19:11:00,
2013-02-21 13:16:00,19.9,15.5,30.24,NE,45,9.6,9.6,83,0.00,,,0.00,WUHU21623XXSP,2013-02-21 19:16:00,
2013-02-21 13:21:00,19.9,15.5,30.23,NNE,22,9.2,9.6,83,0.00,,,0.00,WUHU21623XXSP,2013-02-21 19:21:00,
2013-02-21 13:25:00,19.9,15.8,30.22,ENE,67,4.5,9.6,84,0.00,,,0.00,WUHU21623XXSP,2013-02-21 19:25:00,
2013-02-21 13:30:00,19.9,16.1,30.22,ENE,67,6.3,9.2,85,0.00,,,0.00,WUHU21623XXSP,2013-02-21 19:30:00,
2013-02-21 13:35:00,20.1,16.1,30.22,ENE,67,6.3,6.3,85,0.00,,,0.00,WUHU21623XXSP,2013-02-21 19:35:00,
2013-02-21 13:40:00,20.1,16.0,30.21,NE,45,6.9,6.9,84,0.00,,,0.00,WUHU21623XXSP,2013-02-21 19:40:00,
2013-02-21 13:46:00,20.1,16.0,30.21,NE,45,4.7,6.9,84,0.00,,,0.00,WUHU21623XXSP,2013-02-21 19:46:00,
2013-02-21 13:50:00,20.1,16.3,30.21,NNE,22,5.1,8.9,85,0.00,,,0.00,WUHU21623XXSP,2013-02-21 19:50:00,
2013-02-21 13:55:00,20.3,16.4,30.21,NNE,22,10.5,10.5,85,0.00,,,0.00,WUHU21623XXSP,2013-02-21 19:55:00,
2013-02-21 14:00:00,20.3,16.6,30.21,NNE,22,8.5,10.5,85,0.00,,,0.00,WUHU21623XXSP,2013-02-21 20:00:00,
2013-02-21 14:06:00,20.3,16.4,30.21,NE,45,6.7,8.5,85,0.00,,,0.00,WUHU21623XXSP,2013-02-21 20:06:00,
2013-02-21 14:11:00,20.1,16.5,30.20,NE,45,11.4,14.3,86,0.00,,,0.00,WUHU21623XXSP,2013-02-21 20:11:00,
2013-02-21 14:16:00,20.1,16.8,30.20,NE,45,11.6,14.3,87,0.00,,,0.00,WUHU21623XXSP,2013-02-21 20:16:00,
2013-02-21 14:21:00,20.3,16.8,30.20,NE,45,6.9,11.6,87,0.00,,,0.00,WUHU21623XXSP,2013-02-21 20:21:00,
2013-02-21 14:26:00,20.5,17.1,30.20,NE,45,11.9,11.9,87,0.00,,,0.00,WUHU21623XXSP,2013-02-21 20:26:00,
2013-02-21 14:31:00,20.5,17.1,30.20,ENE,67,8.5,11.9,87,0.00,,,0.00,WUHU21623XXSP,2013-02-21 20:31:00,
2013-02-21 14:36:00,20.8,17.5,30.20,NE,45,8.3,9.6,87,0.00,,,0.00,WUHU21623XXSP,2013-02-21 20:36:00,
2013-02-21 14:41:00,21.0,17.7,30.20,NE,45,10.5,10.5,87,0.00,,,0.00,WUHU21623XXSP,2013-02-21 20:41:00,
2013-02-21 14:46:00,21.0,17.7,30.20,NNE,22,15.2,15.2,87,0.00,,,0.00,WUHU21623XXSP,2013-02-21 20:46:00,
2013-02-21 14:51:00,21.0,17.7,30.20,NE,45,8.9,15.2,87,0.00,,,0.00,WUHU21623XXSP,2013-02-21 20:51:00,
2013-02-21 14:56:00,21.4,18.0,30.20,NNE,22,10.1,12.8,87,0.00,,,0.00,WUHU21623XXSP,2013-02-21 20:56:00,
2013-02-21 15:01:00,21.4,18.0,30.20,NNE,22,6.7,10.7,87,0.00,,,0.00,WUHU21623XXSP,2013-02-21 21:01:00,
2013-02-21 15:06:00,21.4,18.0,30.20,NNE,22,13.0,13.0,87,0.00,,,0.00,WUHU21623XXSP,2013-02-21 21:06:00,
2013-02-21 15:11:00,21.0,17.7,30.20,ENE,67,12.1,14.3,87,0.00,,,0.00,WUHU21623XXSP,2013-02-21 21:11:00,
2013-02-21 15:16:00,21.0,18.0,30.19,NE,45,14.5,15.7,88,0.00,,,0.00,WUHU21623XXSP,2013-02-21 21:16:00,
2013-02-21 15:21:00,21.2,18.1,30.19,NE,45,6.9,15.7,88,0.00,,,0.00,WUHU21623XXSP,2013-02-21 21:21:00,
2013-02-21 15:26:00,21.4,18.3,30.19,ENE,67,12.1,12.1,88,0.00,,,0.00,WUHU21623XXSP,2013-02-21 21:26:00,
2013-02-21 15:31:00,21.4,18.3,30.19,NE,45,15.9,15.9,88,0.00,,,0.00,WUHU21623XXSP,2013-02-21 21:31:00,
2013-02-21 15:36:00,21.4,18.3,30.19,ENE,67,7.6,15.9,88,0.00,,,0.00,WUHU21623XXSP,2013-02-21 21:36:00,
2013-02-21 15:41:00,21.0,18.0,30.19,NE,45,5.8,15.0,88,0.00,,,0.00,WUHU21623XXSP,2013-02-21 21:41:00,
2013-02-21 15:46:00,21.2,18.1,30.19,NE,45,11.4,15.0,88,0.00,,,0.00,WUHU21623XXSP,2013-02-21 21:46:00,
2013-02-21 15:51:00,21.0,18.0,30.19,NE,45,13.0,13.0,88,0.00,,,0.00,WUHU21623XXSP,2013-02-21 21:51:00,
2013-02-21 15:56:00,21.0,18.2,30.18,ENE,67,8.9,13.0,89,0.00,,,0.00,WUHU21623XXSP,2013-02-21 21:56:00,
2013-02-21 16:01:00,21.0,18.2,30.18,NE,45,14.8,14.8,89,0.00,,,0.00,WUHU21623XXSP,2013-02-21 22:01:00,
2013-02-21 16:06:00,20.8,18.0,30.17,NNE,22,10.3,14.8,89,0.00,,,0.00,WUHU21623XXSP,2013-02-21 22:06:00,
2013-02-21 16:11:00,21.0,18.2,30.17,ENE,67,11.2,14.8,89,0.00,,,0.00,WUHU21623XXSP,2013-02-21 22:11:00,
2013-02-21 16:16:00,20.8,18.0,30.18,ENE,67,11.2,11.9,89,0.00,,,0.00,WUHU21623XXSP,2013-02-21 22:16:00,
2013-02-21 16:21:00,20.8,18.0,30.18,NE,45,9.6,11.2,89,0.00,,,0.00,WUHU21623XXSP,2013-02-21 22:21:00,
2013-02-21 16:26:00,21.0,18.0,30.17,ENE,67,8.9,9.6,89,0.00,,,0.00,WUHU21623XXSP,2013-02-21 22:26:00,
2013-02-21 16:31:00,21.0,18.2,30.17,ENE,67,7.4,9.6,89,0.00,,,0.00,WUHU21623XXSP,2013-02-21 22:31:00,
2013-02-21 16:36:00,21.0,18.2,30.17,ENE,67,8.1,17.0,89,0.00,,,0.00,WUHU21623XXSP,2013-02-21 22:36:00,
2013-02-21 16:41:00,21.0,18.5,30.16,NE,45,11.2,17.0,90,0.00,,,0.00,WUHU21623XXSP,2013-02-21 22:41:00,
2013-02-21 16:46:00,21.0,18.5,30.16,ENE,67,7.8,11.2,90,0.00,,,0.00,WUHU21623XXSP,2013-02-21 22:46:00,
2013-02-21 16:51:00,21.0,18.5,30.14,NE,45,12.3,12.3,90,0.00,,,0.00,WUHU21623XXSP,2013-02-21 22:51:00,
2013-02-21 16:56:00,21.0,18.5,30.14,North,0,12.5,15.4,90,0.00,,,0.00,WUHU21623XXSP,2013-02-21 22:56:00,
2013-02-21 17:01:00,21.4,19.1,30.14,North,0,12.5,15.4,91,0.00,,,0.00,WUHU21623XXSP,2013-02-21 23:01:00,
2013-02-21 17:06:00,21.0,19.1,30.14,NNE,22,7.4,12.5,91,0.00,,,0.00,WUHU21623XXSP,2013-02-21 23:06:00,
2013-02-21 17:11:00,21.0,18.8,30.13,ENE,67,6.3,14.8,91,0.00,,,0.00,WUHU21623XXSP,2013-02-21 23:11:00,
2013-02-21 17:16:00,21.4,19.1,30.13,ENE,67,6.3,14.8,91,0.00,,,0.00,WUHU21623XXSP,2013-02-21 23:16:00,
2013-02-21 17:21:00,21.4,19.1,30.13,NE,45,15.2,15.2,91,0.00,,,0.00,WUHU21623XXSP,2013-02-21 23:21:00,
2013-02-21 17:26:00,21.4,19.1,30.13,ENE,67,14.1,15.2,91,0.00,,,0.00,WUHU21623XXSP,2013-02-21 23:26:00,
2013-02-21 17:31:00,21.4,19.1,30.12,NE,45,13.0,15.2,91,0.00,,,0.00,WUHU21623XXSP,2013-02-21 23:31:00,
2013-02-21 17:36:00,21.4,19.4,30.12,NE,45,11.9,13.0,92,0.00,,,0.00,WUHU21623XXSP,2013-02-21 23:36:00,
2013-02-21 17:41:00,21.4,19.4,30.12,NE,45,4.5,11.9,92,0.00,,,0.00,WUHU21623XXSP,2013-02-21 23:41:00,
2013-02-21 17:46:00,21.4,19.4,30.12,NE,45,13.9,13.9,92,0.00,,,0.00,WUHU21623XXSP,2013-02-21 23:46:00,
2013-02-21 17:51:00,21.4,19.4,30.12,NNE,22,13.0,14.1,92,0.00,,,0.00,WUHU21623XXSP,2013-02-21 23:51:00,
2013-02-21 17:56:00,21.4,19.4,30.12,ENE,67,9.8,14.1,92,0.00,,,0.00,WUHU21623XXSP,2013-02-21 23:56:00,
2013-02-21 18:01:00,21.4,19.4,30.11,NE,45,15.7,15.7,92,0.00,,,0.00,WUHU21623XXSP,2013-02-22 00:01:00,
2013-02-21 18:06:00,21.6,19.5,30.11,NE,45,13.0,15.7,92,0.00,,,0.00,WUHU21623XXSP,2013-02-22 00:06:00,
2013-02-21 18:11:00,21.7,19.7,30.11,NE,45,8.5,13.0,92,0.00,,,0.00,WUHU21623XXSP,2013-02-22 00:11:00,
2013-02-21 18:16:00,21.7,19.7,30.11,NE,45,8.3,13.9,92,0.00,,,0.00,WUHU21623XXSP,2013-02-22 00:16:00,
2013-02-21 18:21:00,21.9,19.9,30.11,NE,45,13.0,13.9,92,0.00,,,0.00,WUHU21623XXSP,2013-02-22 00:21:00,
2013-02-21 18:26:00,21.9,19.9,30.10,NE,45,8.5,13.0,92,0.00,,,0.00,WUHU21623XXSP,2013-02-22 00:26:00,
2013-02-21 18:31:00,22.1,20.1,30.10,NE,45,8.5,10.5,92,0.00,,,0.00,WUHU21623XXSP,2013-02-22 00:31:00,
2013-02-21 18:36:00,22.3,20.3,30.09,NE,45,12.3,13.6,92,0.00,,,0.00,WUHU21623XXSP,2013-02-22 00:36:00,
2013-02-21 18:41:00,22.5,20.4,30.09,NE,45,8.3,13.6,92,0.00,,,0.00,WUHU21623XXSP,2013-02-22 00:41:00,
2013-02-21 18:46:00,22.5,20.4,30.10,NE,45,13.2,15.0,92,0.00,,,0.00,WUHU21623XXSP,2013-02-22 00:46:00,
2013-02-21 18:51:00,22.6,20.6,30.10,ENE,67,11.4,15.0,92,0.00,,,0.00,WUHU21623XXSP,2013-02-22 00:51:00,
2013-02-21 18:56:00,22.8,20.8,30.10,ENE,67,9.4,13.4,92,0.00,,,0.00,WUHU21623XXSP,2013-02-22 00:56:00,
2013-02-21 19:01:00,22.8,20.8,30.10,ENE,67,14.3,14.3,92,0.00,,,0.00,WUHU21623XXSP,2013-02-22 01:01:00,
2013-02-21 19:06:00,23.0,20.8,30.09,NE,45,10.5,14.3,92,0.00,,,0.00,WUHU21623XXSP,2013-02-22 01:06:00,
2013-02-21 19:11:00,23.2,21.2,30.09,East,90,9.6,13.4,92,0.00,,,0.00,WUHU21623XXSP,2013-02-22 01:11:00,
2013-02-21 19:16:00,23.2,21.2,30.08,ENE,67,15.0,15.0,92,0.00,,,0.00,WUHU21623XXSP,2013-02-22 01:16:00,
2013-02-21 19:21:00,23.4,21.3,30.08,ENE,67,11.4,15.0,92,0.00,,,0.00,WUHU21623XXSP,2013-02-22 01:21:00,
2013-02-21 19:26:00,23.5,21.5,30.07,ENE,67,8.7,15.0,92,0.00,,,0.00,WUHU21623XXSP,2013-02-22 01:26:00,
2013-02-21 19:31:00,23.5,21.5,30.06,ENE,67,8.7,11.4,92,0.00,,,0.00,WUHU21623XXSP,2013-02-22 01:31:00,
2013-02-21 19:36:00,23.9,21.9,30.05,East,90,11.6,11.6,92,0.00,,,0.00,WUHU21623XXSP,2013-02-22 01:36:00,
2013-02-21 19:41:00,24.1,22.1,30.04,ENE,67,8.9,16.3,92,0.00,,,0.00,WUHU21623XXSP,2013-02-22 01:41:00,
2013-02-21 19:46:00,24.1,21.8,30.03,NE,45,18.3,18.3,91,0.00,,,0.00,WUHU21623XXSP,2013-02-22 01:46:00,
2013-02-21 19:51:00,24.1,21.8,30.03,East,90,15.7,23.7,91,0.00,,,0.00,WUHU21623XXSP,2013-02-22 01:51:00,
2013-02-21 19:56:00,24.1,21.3,30.03,ENE,67,15.7,23.7,89,0.00,,,0.00,WUHU21623XXSP,2013-02-22 01:56:00,
2013-02-21 20:01:00,24.1,21.3,30.04,ENE,67,19.5,21.3,89,0.00,,,0.00,WUHU21623XXSP,2013-02-22 02:01:00,
2013-02-21 20:06:00,24.1,21.3,30.04,East,90,19.7,19.7,89,0.00,,,0.00,WUHU21623XXSP,2013-02-22 02:06:00,
2013-02-21 20:11:00,24.1,21.3,30.05,NNE,22,4.9,19.7,89,0.00,,,0.00,WUHU21623XXSP,2013-02-22 02:11:00,
2013-02-21 20:16:00,24.1,21.3,30.05,ENE,67,19.7,19.7,89,0.00,,,0.00,WUHU21623XXSP,2013-02-22 02:16:00,
2013-02-21 20:21:00,24.1,21.3,30.04,ENE,67,13.9,19.7,89,0.00,,,0.00,WUHU21623XXSP,2013-02-22 02:21:00,
2013-02-21 20:26:00,24.1,21.3,30.05,East,90,21.9,21.9,89,0.00,,,0.00,WUHU21623XXSP,2013-02-22 02:26:00,
2013-02-21 20:31:00,24.1,21.3,30.04,ENE,67,11.0,21.9,89,0.00,,,0.00,WUHU21623XXSP,2013-02-22 02:31:00,
2013-02-21 20:36:00,24.1,21.3,30.04,East,90,10.5,15.2,89,0.00,,,0.00,WUHU21623XXSP,2013-02-22 02:36:00,
2013-02-21 20:41:00,24.1,21.3,30.04,East,90,9.2,15.7,89,0.00,,,0.00,WUHU21623XXSP,2013-02-22 02:41:00,
2013-02-21 20:46:00,24.1,21.3,30.04,ENE,67,14.1,15.7,89,0.00,,,0.00,WUHU21623XXSP,2013-02-22 02:46:00,
2013-02-21 20:51:00,24.3,21.3,30.04,ENE,67,15.0,15.0,89,0.00,,,0.00,WUHU21623XXSP,2013-02-22 02:51:00,
2013-02-21 20:56:00,24.4,21.6,30.02,ENE,67,15.9,15.9,89,0.00,,,0.00,WUHU21623XXSP,2013-02-22 02:56:00,
2013-02-21 21:01:00,24.4,21.4,30.02,East,90,14.1,21.0,88,0.00,,,0.00,WUHU21623XXSP,2013-02-22 03:01:00,
2013-02-21 21:06:00,24.4,21.4,30.01,ENE,67,11.9,21.0,88,0.00,,,0.00,WUHU21623XXSP,2013-02-22 03:06:00,
2013-02-21 21:11:00,24.4,21.4,30.01,ENE,67,19.7,19.7,88,0.00,,,0.00,WUHU21623XXSP,2013-02-22 03:11:00,
2013-02-21 21:16:00,24.4,21.4,30.00,ENE,67,19.7,19.7,88,0.00,,,0.00,WUHU21623XXSP,2013-02-22 03:16:00,
2013-02-21 21:21:00,24.4,21.4,30.00,ENE,67,13.4,19.7,88,0.00,,,0.00,WUHU21623XXSP,2013-02-22 03:21:00,
2013-02-21 21:26:00,24.4,21.4,30.00,ENE,67,22.6,22.6,88,0.00,,,0.00,WUHU21623XXSP,2013-02-22 03:26:00,
2013-02-21 21:31:00,24.6,21.3,30.00,ENE,67,20.1,23.0,87,0.00,,,0.00,WUHU21623XXSP,2013-02-22 03:31:00,
2013-02-21 21:36:00,24.6,21.3,30.01,ENE,67,15.0,23.0,87,0.00,,,0.00,WUHU21623XXSP,2013-02-22 03:36:00,
2013-02-21 21:41:00,24.6,21.3,30.01,East,90,13.4,20.1,87,0.00,,,0.00,WUHU21623XXSP,2013-02-22 03:41:00,
2013-02-21 21:46:00,24.6,21.3,30.00,NE,45,13.4,15.0,87,0.00,,,0.00,WUHU21623XXSP,2013-02-22 03:46:00,
2013-02-21 21:51:00,24.6,21.3,30.00,ENE,67,12.5,13.9,87,0.00,,,0.00,WUHU21623XXSP,2013-02-22 03:51:00,
2013-02-21 21:56:00,24.6,21.3,30.00,East,90,14.1,14.1,87,0.00,,,0.00,WUHU21623XXSP,2013-02-22 03:56:00,
2013-02-21 22:01:00,25.0,21.4,30.01,ESE,112,14.5,19.7,86,0.00,,,0.00,WUHU21623XXSP,2013-02-22 04:01:00,
2013-02-21 22:06:00,25.0,21.4,30.00,ENE,67,10.7,19.7,86,0.00,,,0.00,WUHU21623XXSP,2013-02-22 04:06:00,
2013-02-21 22:11:00,25.0,21.4,30.01,ENE,67,17.2,17.2,86,0.00,,,0.00,WUHU21623XXSP,2013-02-22 04:11:00,
2013-02-21 22:16:00,25.0,21.4,30.00,East,90,10.7,17.2,86,0.00,,,0.00,WUHU21623XXSP,2013-02-22 04:16:00,
2013-02-21 22:21:00,25.0,21.4,30.00,ESE,112,19.7,19.7,86,0.00,,,0.00,WUHU21623XXSP,2013-02-22 04:21:00,
2013-02-21 22:26:00,25.0,21.4,30.01,East,90,11.6,19.7,86,0.00,,,0.00,WUHU21623XXSP,2013-02-22 04:26:00,
2013-02-21 22:31:00,25.0,21.1,30.01,ENE,67,6.0,11.6,85,0.00,,,0.00,WUHU21623XXSP,2013-02-22 04:31:00,
2013-02-21 22:36:00,25.0,21.1,30.00,East,90,21.7,21.7,85,0.00,,,0.00,WUHU21623XXSP,2013-02-22 04:36:00,
2013-02-21 22:41:00,25.0,21.1,30.00,ENE,67,14.8,21.7,85,0.00,,,0.00,WUHU21623XXSP,2013-02-22 04:41:00,
2013-02-21 22:46:00,25.0,21.1,30.01,East,90,8.3,21.7,85,0.00,,,0.00,WUHU21623XXSP,2013-02-22 04:46:00,
2013-02-21 22:51:00,24.8,21.4,30.01,ESE,112,10.5,15.9,86,0.00,,,0.00,WUHU21623XXSP,2013-02-22 04:51:00,
2013-02-21 22:56:00,24.6,21.0,30.00,East,90,14.8,14.8,86,0.00,,,0.00,WUHU21623XXSP,2013-02-22 04:56:00,
2013-02-21 23:00:00,24.6,21.0,30.00,East,90,10.5,14.8,86,0.00,,,0.00,WUHU21623XXSP,2013-02-22 05:00:00,
2013-02-21 23:05:00,24.6,21.3,30.00,East,90,13.2,19.0,87,0.00,,,0.00,WUHU21623XXSP,2013-02-22 05:05:00,
2013-02-21 23:10:00,24.6,21.3,29.99,ESE,112,14.8,19.0,87,0.00,,,0.00,WUHU21623XXSP,2013-02-22 05:10:00,
2013-02-21 23:15:00,24.6,21.3,29.99,East,90,12.5,15.2,87,0.00,,,0.00,WUHU21623XXSP,2013-02-22 05:15:00,
2013-02-21 23:20:00,24.6,21.0,29.99,ENE,67,6.7,13.4,86,0.00,,,0.00,WUHU21623XXSP,2013-02-22 05:20:00,
2013-02-21 23:25:00,24.6,21.0,29.98,NE,45,13.4,14.3,86,0.00,,,0.00,WUHU21623XXSP,2013-02-22 05:25:00,
2013-02-21 23:30:00,24.6,21.0,29.98,ENE,67,9.2,15.7,86,0.00,,,0.00,WUHU21623XXSP,2013-02-22 05:30:00,
2013-02-21 23:35:00,24.6,21.0,29.98,ENE,67,14.3,15.7,86,0.00,,,0.00,WUHU21623XXSP,2013-02-22 05:35:00,
2013-02-21 23:40:00,24.6,21.3,29.97,NE,45,13.9,15.0,87,0.00,,,0.00,WUHU21623XXSP,2013-02-22 05:40:00,
2013-02-21 23:45:00,24.4,21.1,29.96,East,90,18.1,18.1,87,0.00,,,0.00,WUHU21623XXSP,2013-02-22 05:45:00,
2013-02-21 23:50:00,24.4,21.1,29.95,ENE,67,14.1,18.1,87,0.00,,,0.00,WUHU21623XXSP,2013-02-22 05:50:00,
2013-02-21 23:55:00,24.4,21.1,29.95,ENE,67,12.1,14.1,87,0.00,,,0.00,WUHU21623XXSP,2013-02-22 05:55:00,